Regional Weather Roundup
Issued by NWS Charleston, SC

Current Version | Previous Version | Graphics & Text | Print | Product List | Glossary On
Versions: 1 2 3 4 5 6 7 8 9 10 11 12 13 14 15 16 17 18 19 20 21 22 23 24 25 26 27 28 29 30 31 32 33 34 35 36 37 38 39 40 41 42 43 44 45 46 47 48 49 50
000 ASUS42 KCHS 200827 RWRCHS Regional Weather Roundup National Weather Service Charleston SC 400 AM EDT FRI APR 20 2018 NOTE: "fair" indicates few or no clouds below 12,000 feet with no significant weather and/or obstructions to visibility. Not all stations are quality controlled. Use data with caution, especially dewpoint observations. SCZ027-030-031-034>040-042>050-200900- ...Southeast South Carolina... CITY SKY/WX TMP DP RH WIND PRES REMARKS N Charleston FAIR 52 30 43 NE12 30.19R Waterfront Prk N/A 56 40 55 NE21 30.02R Mount Pleasant FAIR 52 32 46 N8 30.21R Johns Island FAIR 54 32 43 N17G26 30.20R Pinopolis N/A 54 37 54 NE20 30.12R Moncks Corner FAIR 48 27 43 N13G23 30.22R Summerville FAIR 50 32 50 N10 30.22R Beaufort MCAS FAIR 55 36 48 NE20G28 30.18R Beaufort Arpt PTSUNNY 54 36 50 NE20G25 30.17R Hilton Head Is FAIR 57 36 44 NE16G24 30.17R Walterboro FAIR 50 32 50 NE8 30.22R Allendale FAIR 50 28 43 NE9 30.21R ...Southern Midlands and Pee Dee... CITY SKY/WX TMP DP RH WIND PRES REMARKS Georgetown FAIR 46 30 53 N13 30.22R Kingstree FAIR 46 28 49 N8 30.24R Orangeburg FAIR 48 28 46 NE13G22 30.24R Barnwell PTSUNNY 48 27 43 NE20G31 30.23R Aiken FAIR 46 27 46 NE18G25 30.26R Manning FAIR 43 28 56 NE10 30.24R Columbia FAIR 49 29 46 NE9 30.25R Sumter FAIR 45 28 51 N9 30.23R Florence FAIR 46 30 53 N10 30.25R Myrtle Beach FAIR 49 31 49 N17 30.22R N Myrtle Beach FAIR 48 31 51 N14G21 30.20S $$ GAZ063-065-086>088-099>101-113>116-118-119-134>141-150-200900- ...Southeast Georgia... CITY SKY/WX TMP DP RH WIND PRES REMARKS Savannah Arpt MOCLDY 57 33 40 NE12 30.16R Hunter AAF CLOUDY 58 34 40 NE14G21 30.13R Fort Stewart CLOUDY 59 36 43 NE16 30.13R Statesboro FAIR 55 25 32 NE5 30.18R Sylvania FAIR 54 36 50 NE12G17 30.20R Claxton FAIR 58 35 42 N13G21 30.17R ...CSRA, Central and far Southeast Georgia... CITY SKY/WX TMP DP RH WIND PRES REMARKS Thomson FAIR 49 29 45 SE12 30.27R Augusta-Bush FAIR 51 26 37 NE14 30.22R Augusta-Daniel FAIR 52 28 39 NE13 30.23R Swainsboro FAIR 54 36 50 E10 30.19R Vidalia FAIR 55 37 50 NE13G21 30.16R Eastman FAIR 49 31 50 N3 30.19R Hazlehurst FAIR 54 37 53 N3 30.15R Alma FAIR 55 39 54 N3 30.14R Waycross CLOUDY 57 39 51 N5 30.13R Jesup NOT AVBL Baxley FAIR 52 39 62 N3 30.14R Brunswick FAIR 59 43 55 N5 30.13R Saint Simons FAIR 62 45 53 N7 30.11R $$ SCZ027-028-034-036>038-045-046-048>050-GAZ119-141-200900- ...Lake and Supplemental Coastal Observations... STATION/POSITION TIME TEMP WIND PRES WAVE SWELL AIR SEA DIR/SP/G HT/PER HT/PER/DIR (UTC) (F) (DEG/KT/KT) (MB) (FT/S) (FT/S/D) Winyah Bay 0745 50 10/ 7 1023.0R Lake Murray 0720 49 30/ 4/ 8 1023.7 ACE Basin NERRS 0745 54 350/ 4 N/A Fort Pulaski 0800 59 66 50/ 17/ 21 1021.3 Sapelo Island 0800 62 40/ 13 1020.0 $$ ANZ835-935-AMZ111-154-330-350-352-354-370-450-454-472-200900- ...C-MAN and Buoy Observations... STATION/POSITION TIME TEMP WIND PRES WAVE SWELL AIR SEA DIR/SP/G HT/PER HT/PER/DIR (UTC) (F) (DEG/KT/KT) (MB) (FT/S) (FT/S/D) Buoy 41004 0810 59 67 30/ 25/ 31 1021.4 Buoy 41008 0750 64 65 50/ 23/ 29 1019.0R 4/ 4 2/120/ 8 Folly Beach CMAN 0800 55 10/ 19/ 22 1022.5R Capers Nearshore 0808 55 63 30/ 25/ 31 1022.0R Fripp Nearshore 0808 58 64 40/ 17/ 25 1020.7R STATION/POSITION TIME TEMP WIND PRES WAVE SWELL AIR SEA DIR/SP/G HT/PER HT/PER/DIR (UTC) (F) (DEG/KT/KT) (MB) (FT/S) (FT/S/D) 5E St. Marys GA 0800 66 N/A 3/ 3 Frying Pan Buoy 0810 56 65 20/ 25/ 33 1021.5 Buoy 41025 0810 51 67 360/ 25/ 33 1022.6 Cape Lookout NC 0800 10/ 21/ 30 1023.1R Buoy 41002 0810 69 71 20/ 21/ 27 1016.7 Buoy 41010 0810 74 74 180/ 14/ 16 1017.8 St Augustine FL 0800 66 67 310/ 7/ 10 1018.4R $$

USA.gov is the U.S. government's official web portal to all federal, state and local government web resources and services.